[Iaude] MPEC J211: 2024 JC6 [a=1.73,e=0.36,i=6.6,H=25.0]
    mpec at cfa.harvard.edu 
    mpec at cfa.harvard.edu
       
    Wed May  8 22:39:12 EDT 2024
    
    
  
M.P.E.C. 2024-J211                                  Issued 2024 May 9, 02:37 UT
     The Minor Planet Electronic Circulars contain information on unusual
         minor planets, routine data on comets and natural satellites,
         and occasional editorial announcements.  They are published
    on behalf of Division F of the International Astronomical Union by the
          Minor Planet Center, Smithsonian Astrophysical Observatory,
                          Cambridge, MA 02138, U.S.A.
			  
             Prepared using the Tamkin Foundation Computer Network
                              MPC at CFA.HARVARD.EDU
            URL https://www.minorplanetcenter.net/    ISSN 1523-6714
                                    2024 JC6                                    
Observations:
     K24J06C  C2024 05 03.56009815 21 27.493+16 07 33.41         22.08GVEJ211F51
     K24J06C  C2024 05 03.57339215 21 29.404+16 07 09.45         22.32GVEJ211F51
     K24J06C  C2024 05 03.58661415 21 31.315+16 06 45.43         22.09GVEJ211F51
     K24J06C* C2024 05 07.50201615 32 57.254+13 54 30.16         22.14wXEJ211F52
     K24J06C  C2024 05 07.51449915 32 59.189+13 54 00.62         22.04wXEJ211F52
     K24J06C  C2024 05 07.53950715 33 03.121+13 53 00.56         21.54wXEJ211F52
     K24J06C  C2024 05 07.59631615 33 12.301+13 50 42.80         21.33GVEJ211F51
     K24J06C  C2024 05 07.59696815 33 12.420+13 50 41.10         21.43GVEJ211F51
     K24J06C KC2024 05 08.23571215 35 16.23 +13 24 36.9          22.0 GVEJ211H21
     K24J06C KC2024 05 08.24149015 35 17.16 +13 24 22.4          22.1 GVEJ211H21
     K24J06C KC2024 05 08.24824115 35 18.26 +13 24 06.1          22.1 GVEJ211H21
     K24J06C  C2024 05 08.41243415 35 50.171+13 17 40.35         22.33GVEJ211F51
     K24J06C  C2024 05 08.41325415 35 50.301+13 17 38.22         21.69GVEJ211F51
     K24J06C 1C2024 05 08.98926 15 37 39.00 +12 52 27.2          21.5 VXEJ211033
     K24J06C 1C2024 05 08.99288 15 37 39.61 +12 52 17.6          21.0 VXEJ211033
     K24J06C 1C2024 05 08.99650 15 37 40.24 +12 52 08.1          20.9 VXEJ211033
     K24J06C 1C2024 05 09.00012 15 37 40.85 +12 51 58.5          21.0 VXEJ211033
Observer details:
033 Karl Schwarzschild Observatory, Tautenburg.  Observers S. Melnikov, C.
    Hogner, F. Ludwig, M. Hartmann, B. Stecklum.  Measurer B. Stecklum.
    1.34-m f/3 Schmidt + CCD.
F51 Pan-STARRS 1, Haleakala.  Observers J. Herman, T. Lowe, P. Minguez, A.
    Schultz, I. Smith.  Measurers K. Chambers, T. de Boer, J. Fairlamb, H.
    Gao, M. Huber, C.-C. Lin, E. Magnier, Y. Ramanjooloo, R. Wainscoat, R.
    Weryk.  1.8-m Ritchey-Chretien + CCD.
F52 Pan-STARRS 2, Haleakala.  Observers J. Herman, T. Lowe, P. Minguez, A.
    Schultz, I. Smith.  Measurers K. Chambers, T. de Boer, J. Fairlamb, H.
    Gao, M. Huber, C.-C. Lin, E. Magnier, Y. Ramanjooloo, R. Wainscoat, R.
    Weryk.  1.8-m Ritchey-Chretien + CCD.
H21 Astronomical Research Observatory, Westfield.  Observer R. Holmes.
    Measurers T. Linder, R. Holmes, L. Horn.  1.3-m f/4.0 astrograph + CCD.
Orbital elements:
2024 JC6                                                 Earth MOID = 0.0860 AU
Epoch 2024 Mar. 31.0 TT = JDT 2460400.5                 Veres                   
M 336.54975              (2000.0)            P               Q                  
n   0.43425223     Peri.  167.43534     -0.44786615     +0.88717668             
a   1.7270623      Node    75.86882     -0.82991266     -0.36628104             
e   0.3646918      Incl.    6.57603     -0.33265732     -0.28063454             
P   2.27           H   25.07          G   0.15           U   8                  
Residuals in seconds of arc
240503 F51  0.1-  0.1+    240507 F51  0.1+  0.2+    240508 F51  0.1+  0.1+
240503 F51  0.0   0.0     240507 F51  0.3+  0.1+    240508 033  0.4+  0.2+
240503 F51  0.0   0.2-    240508 H21  0.1+  0.0     240508 033  0.2+  0.0
240507 F52  0.1+  0.0     240508 H21  0.1-  0.3-    240508 033  0.4+  0.0
240507 F52  0.0   0.2+    240508 H21  0.2-  0.0     240509 033  0.2+  0.1-
240507 F52  0.1+  0.1+    240508 F51  0.1+  0.2+
Ephemeris:
2024 JC6                 a,e,i = 1.73, 0.36, 7                   q = 1.0972
Date    TT    R. A. (2000) Decl.     Delta      r    Elong.  Phase     V
2024 04 09    14 31 08.7 +19 20 16   0.2087  1.1815   146.7    27.8    23.3
...
2024 04 24    14 58 20.1 +19 05 45   0.1541  1.1362   145.6    30.0    22.6
...
2024 05 02    15 17 17.9 +16 49 34   0.1302  1.1185   146.3    30.0    22.2
...
2024 05 08    15 34 31.1 +13 34 51   0.1148  1.1086   148.2    28.7    21.9
2024 05 09    15 37 40.9 +12 52 49   0.1125  1.1072   148.7    28.3    21.8
2024 05 10    15 40 56.3 +12 07 46   0.1103  1.1059   149.2    27.9    21.7
...
2024 05 16    16 02 29.6 +06 29 52   0.09860 1.1001   153.3    24.4    21.4
...
2024 05 24    16 36 36.0 -03 59 37   0.08881 1.0972   161.4    17.1    20.9
...
2024 06 08    17 49 02.1 -26 41 19   0.09360 1.1071   169.3     9.8    20.8
M. P. C. Staff               (C) Copyright 2024 MPC           M.P.E.C. 2024-J211
    
    
More information about the Iaude
mailing list